Find Starlink 30950

NORAD ID: 58440 Int'l Des: 2023-183 Owner: SPXS Country: US Constellation: starlink operational
LEOCIRCULAR

当前视图

正在加载3D地球...

About Starlink 30950

Starlink 30950 (NORAD 58440) is a starlink constellation satellite (v2 mini) launched Nov 28, 2023 by SPXS of US. It operates in LEO, CIRCULAR orbit with a mass of 730.00 kg.

关于 Starlink 30950

正在加载描述...

即将过境

Passes for default location (London). Set your location on the main map for personalized predictions.

高度历史

Loading altitude history...

两行轨道根数

1 58440U 23183D 26170.56505864 -.00001522 00000-0 -45809-4 0 9995
2 58440 43.0060 349.7937 0002339 287.6161 72.4436 15.27561450144614
Epoch: Jun 19, 2026 • Age: 18 hours

当前状态

高度 483.9 km
速度 7.63 km/s
星下点 21.78°N, 119.87°E
发射日期 Nov 28, 2023
运行时间 2.5 years
类型 internet

技术详情

分类 Payload
质量 730.00 kg
干质量 700.00 kg
总质量 730.00 kg
长度 0.30 m
直径 4.10 m
跨度 29.00 m
形状 Box + pan
制造商 SPXS
平台类型 Starlink V2M
阶段状态 In Orbit
所有者/国家 SPXS/US

Most Searched